Location: ????
(30.1475°N, 31.1342°E)
Time: 11:49:35
(UTC+00:00)

ALOS - Pass Details

Date: 27 September 2022
Orbit: 681 x 683 km, 98.0° (Epoch: 06 November)

Event Time Altitude Azimuth Distance (km) Brightness Sun altitude
Rises 02:04:28 0° 353° (N) 3,047 5.7 -22.7°
Reaches altitude 10° 02:07:10 10° 337° (NNW) 2,128 4.7 -22.2°
Enters shadow 02:07:37 12° 333° (NNW) 1,999 4.5 -22.1°
